[[{"header":{"parameterUnit":"m.s-1","parameterCategory":1,"la1":30.2992,"la2":30.254,"lo1":-89.0895,"lo2":-89.0443,"dy":0.0025,"dx":0.0025,"nx":19,"ny":19,"refTime":"2026-04-19T03:00:00:Z","depth":0,"parameterNumber":2,"parameterNumberName":"U-component_of_WINDS"},"data":[0,0,0,2.2976,2.2981,2.3209,2.3209,2.3515,2.3517,0,0,0,0,0,0,0,0,0,0,0,2.2914,2.2916,2.2976,2.2982,2.3208,2.3209,2.3514,2.3517,0,0,0,0,0,0,0,0,0,0,0,2.2913,2.2916,2.2918,2.2983,2.3208,2.321,2.3513,2.3338,0,0,0,0,0,0,0,0,0,0,2.3115,2.3062,2.2915,2.2919,2.2984,2.3208,2.321,2.3329,2.3349,2.3417,0,2.3475,0,2.3501,2.3538,2.3539,0,0,0,2.2979,2.3045,2.3101,2.2919,2.2986,2.3208,2.3105,2.334,2.3362,2.3443,2.3479,2.349,2.3506,2.354,2.3542,2.3934,2.3935,0,0,2.2967,2.2959,2.3086,2.3116,2.3077,2.3098,2.3113,2.3353,2.3394,2.348,2.3497,2.3511,2.3542,2.3545,2.3932,2.3934,0,0,0,2.2932,2.295,2.3,2.3104,2.3143,2.3105,2.3121,2.3383,2.34,2.35,2.3514,2.3544,2.3548,2.393,2.3933,2.4021,0,0,0,2.2925,2.293,2.2995,2.2993,2.3139,2.3265,2.3146,2.3383,2.3411,2.3513,2.3544,2.3551,2.3927,2.3931,2.4014,2.4065,0,0,0,2.2898,2.2927,2.2961,2.2992,2.3088,2.3262,2.3292,2.3389,2.342,2.354,2.3552,2.3926,2.393,2.4007,2.4055,2.4167,0,0,0,2.2868,2.3038,2.2962,2.3158,2.3086,2.3313,2.3291,2.3461,2.3574,2.3546,2.3928,2.3932,2.4005,2.4049,2.416,2.4261,2.4301,0,0,2.3079,2.3063,2.3179,2.3118,2.3355,2.3279,2.3531,2.3644,2.3665,2.3844,2.3853,2.4016,2.4054,2.4165,2.4527,2.4559,0,0,0,2.3243,2.3327,2.3391,2.3496,2.3584,2.3665,2.3739,2.3781,2.3933,2.3753,2.4086,2.4109,2.4175,2.4223,2.4251,2.4309,2.3954,2.3953,2.3953,2.3533,2.3546,2.3739,2.378,2.3883,2.3957,2.4043,2.4113,2.4099,2.4177,2.4231,2.4448,2.4505,2.4525,2.4586,2.4284,2.4284,2.4284,2.4285,2.3845,2.3966,2.3939,2.4117,2.4132,2.4283,2.4361,2.4346,2.4491,2.4409,2.4468,2.4378,2.456,2.4614,2.4291,2.429,2.4289,2.4289,2.4288,2.4038,2.4098,2.4143,2.4296,2.4414,2.445,2.459,2.4599,2.4608,2.4666,2.4725,2.4724,2.4726,2.4693,2.4694,2.4694,2.4695,2.4696,2.4696,2.4221,2.4269,2.4383,2.4489,2.4558,2.465,2.4725,2.4795,2.4874,2.487,2.4871,2.4851,2.4573,2.4505,2.4708,2.4706,2.4704,2.4703,2.4702,2.4536,2.4466,2.4643,2.4711,2.4837,2.4954,2.4961,2.5102,2.5161,2.523,2.5196,2.4989,2.4976,2.4954,2.4898,2.5191,2.5191,2.5191,2.5191,2.4701,2.4693,2.4876,2.4985,2.5093,2.5117,2.5321,2.5382,2.5434,2.5472,2.543,2.5355,2.5333,2.5333,2.5303,2.5251,2.5627,2.5628,2.5628,2.4896,2.4899,2.5069,2.5115,2.5214,2.5299,2.5492,2.5621,2.5666,2.5646,2.5503,2.5484,2.5363,2.5323,2.5302,2.5255,2.516,0,0]},{"header":{"parameterUnit":"m.s-1","parameterCategory":1,"la1":30.2992,"la2":30.254,"lo1":-89.0895,"lo2":-89.0443,"dy":0.0025,"dx":0.0025,"nx":19,"ny":19,"refTime":"2026-04-19T03:00:00:Z","depth":0,"parameterNumber":3,"parameterNumberName":"V-component_of_WINDS"},"data":[0,0,0,-0.2372,-0.2369,-0.2271,-0.2271,-0.2129,-0.2127,0,0,0,0,0,0,0,0,0,0,0,-0.2391,-0.239,-0.2372,-0.2369,-0.2271,-0.2271,-0.2129,-0.2127,0,0,0,0,0,0,0,0,0,0,0,-0.2392,-0.239,-0.2388,-0.2369,-0.2271,-0.2271,-0.2129,-0.2209,0,0,0,0,0,0,0,0,0,0,-0.2307,-0.2315,-0.239,-0.2388,-0.2368,-0.2272,-0.2271,-0.2213,-0.2204,-0.2166,0,-0.213,0,-0.2127,-0.2117,-0.2116,0,0,0,-0.2376,-0.2323,-0.2306,-0.2388,-0.2367,-0.2272,-0.2317,-0.2208,-0.2198,-0.2154,-0.2128,-0.2124,-0.2124,-0.2116,-0.2115,-0.1875,-0.1874,0,0,-0.2381,-0.2368,-0.2313,-0.2298,-0.2313,-0.2321,-0.2314,-0.2202,-0.2173,-0.2128,-0.2121,-0.2122,-0.2115,-0.2114,-0.1876,-0.1875,0,0,0,-0.2392,-0.2371,-0.2357,-0.2304,-0.2288,-0.2318,-0.231,-0.2178,-0.2175,-0.2119,-0.212,-0.2114,-0.2112,-0.1878,-0.1876,-0.179,0,0,0,-0.2396,-0.2378,-0.2359,-0.2349,-0.2289,-0.2232,-0.2288,-0.2183,-0.217,-0.2121,-0.2114,-0.211,-0.188,-0.1877,-0.1796,-0.175,0,0,0,-0.2401,-0.2378,-0.2361,-0.2349,-0.2307,-0.2234,-0.2224,-0.218,-0.2171,-0.2116,-0.211,-0.1881,-0.1877,-0.1801,-0.1759,-0.1682,0,0,0,-0.2401,-0.2286,-0.2359,-0.2231,-0.2307,-0.2183,-0.2225,-0.2133,-0.2076,-0.2113,-0.1879,-0.1876,-0.1803,-0.1764,-0.1688,-0.1613,-0.1581,0,0,-0.2247,-0.2266,-0.2192,-0.2255,-0.2114,-0.2199,-0.2045,-0.2005,-0.2013,-0.192,-0.1915,-0.1794,-0.176,-0.1683,-0.1414,-0.1389,0,0,0,-0.2139,-0.2085,-0.205,-0.1996,-0.1965,-0.1934,-0.192,-0.1906,-0.1829,-0.1963,-0.1748,-0.1727,-0.1683,-0.1648,-0.1626,-0.1588,-0.186,-0.1861,-0.1861,-0.1898,-0.1916,-0.1793,-0.1799,-0.1746,-0.1735,-0.1693,-0.1672,-0.1704,-0.1653,-0.1624,-0.1459,-0.1417,-0.1401,-0.1361,-0.1589,-0.1588,-0.1588,-0.1588,-0.1672,-0.1597,-0.1646,-0.1544,-0.1563,-0.1477,-0.1462,-0.1488,-0.1411,-0.1482,-0.1443,-0.1516,-0.1373,-0.1339,-0.1582,-0.1583,-0.1584,-0.1584,-0.1585,-0.1514,-0.1481,-0.1468,-0.1393,-0.1333,-0.1344,-0.1268,-0.1288,-0.1307,-0.127,-0.1241,-0.1242,-0.1244,-0.1255,-0.1255,-0.1254,-0.1254,-0.1253,-0.1253,-0.1353,-0.1341,-0.1275,-0.1234,-0.1203,-0.1164,-0.1154,-0.1123,-0.1095,-0.1115,-0.1115,-0.1151,-0.1357,-0.1407,-0.1244,-0.1246,-0.1247,-0.1248,-0.1248,-0.1112,-0.1171,-0.1068,-0.1037,-0.0991,-0.093,-0.0959,-0.0896,-0.0874,-0.0836,-0.0882,-0.1032,-0.1052,-0.1069,-0.111,-0.088,-0.088,-0.088,-0.088,-0.0976,-0.099,-0.089,-0.0839,-0.0792,-0.0808,-0.0691,-0.0683,-0.0683,-0.067,-0.0708,-0.0765,-0.0782,-0.0792,-0.0815,-0.0853,-0.0563,-0.0563,-0.0563,-0.0827,-0.0838,-0.0734,-0.0736,-0.0703,-0.0673,-0.0563,-0.0502,-0.0515,-0.055,-0.066,-0.0674,-0.0767,-0.0797,-0.0829,-0.0865,-0.0936,0,0]}]]